STARLINK-35127

Last updated on Sun Oct 19 2025 00:02:05 GMT+0000 (Coordinated Universal Time)

1 65639U 25210T 25291.19184088 .00065845 00000+0 16411-2 0 9999 2 65639 53.1590 251.1215 0001780 120.2423 239.8758 15.39634850 5888

Satellite not in orbit

STARLINK-35127